Погода в Кацуте

Япония     36°21′10″N   140°32′04″E
темп.,
°C
ветер,
м/с
пор.,
м/с
влажн.,
%
обл.,
%
осадки,
мм/ч
давл.,
гПа
погр.,
м
9 мая, вс
вс900:00+18ююз41174100 0.0 1004750
03:00+18юз61270100 0.0 1002603
06:00+18юз3773100 0.0 1002382
09:00+21зюз2359100 0.0 1002635
12:00+26юв23370 0.0 10001442
15:00+25в554532 0.0 999832
18:00+18с6851100 0.1 1003499
21:00+17с364710 0.1 1005470
10 мая, пн
пн1000:00+16зсз13440 0.0 1006185
03:00+14сз22460 0.0 100760
06:00+15ююз24452 0.0 1009210
09:00+20зюз47275 0.0 10101413
12:00+23ююз25315 0.0 10092481
15:00+24ююз2530100 0.0 10072532
18:00+20ю6106169 0.3 1009675
21:00+19ю2462100 0.4 1010206
11 мая, вт
вт1100:00+15св7976100 0.5 1012608
03:00+13св4780100 1.3 1013527
06:00+13всв4674100 0.4 1015606
09:00+14юв2261100 0.5 1016675
12:00+18ю3448100 0.0 10151489
15:00+20юв354268 0.0 10141878
18:00+16юв4663100 0.1 1016294
21:00+16вюв366530 0.2 1019505
12 мая, ср
ср1200:00+14св245434 0.0 1020263
03:00+13ссв365948 0.0 1020317
06:00+14всв456399 0.0 1022820
09:00+15в336217 0.0 1023925
12:00+17вюв435875 0.0 10231029
15:00+17юв455692 0.0 10221078
18:00+17юв576189 0.0 1022684
21:00+16ю486724 0.0 1023624
13 мая, чт
чт1300:00+16ю3871100 0.0 1023554
03:00+15ю2776100 0.0 1022247
06:00+16ю2675100 0.0 1022247
09:00+19ю4557100 0.0 10211321
12:00+20ююв5754100 0.1 10201362
15:00+20ю5757100 0.1 10181230
18:00+19ю4763100 0.0 1018839
21:00+17ю3676100 0.1 1018423